FW1542 Weather Reports


Display with metric or nautical units.
time (UTC)temp
F
wind
direction
speed
MPH
gust
MPH
rain 1hr
in
rain 24hr
in
rain mn
in
humidity
%
barometer
mb
20260504031556 70 166 5.0 9.0 0.00 0.00 0.00 62 1019.9
20260504031544 70 174 4.0 10.0 0.00 0.00 0.00 62 1017.0
20260504030054 69 124 4.0 9.0 0.00 0.00 0.00 61 1019.8
20260504030045 69 144 4.0 10.0 0.00 0.00 0.00 61 1016.8
20260504024555 68 84 5.0 9.0 0.00 0.00 0.00 60 1019.6
20260504024546 68 171 5.0 9.0 0.00 0.00 0.00 59 1016.7
20260504023054 69 113 2.0 4.0 0.00 0.00 0.00 58 1019.6
20260504023043 69 113 2.0 4.0 0.00 0.00 0.00 58 1016.7
20260504021554 70 113 1.0 4.0 0.00 0.00 0.00 57 1019.7
20260504021541 70 114 1.0 4.0 0.00 0.00 0.00 56 1016.7
20260504020110 71 126 2.0 4.0 0.00 0.00 0.00 55 1019.6
20260504020044 71 126 2.0 4.0 0.00 0.00 0.00 55 1016.6
20260504014558 72 129 1.0 3.0 0.00 0.00 0.00 53 1019.5
20260504014543 72 129 1.0 4.0 0.00 0.00 0.00 53 1016.5
20260504013111 73 88 2.0 7.0 0.00 0.00 0.00 52 1019.2
20260504013101 73 88 2.0 7.0 0.00 0.00 0.00 51 1016.1
20260504011552 74 125 3.0 7.0 0.00 0.00 0.00 49 1019.2
20260504011543 74 159 3.0 7.0 0.00 0.00 0.00 48 1016.1
20260504010051 74 144 4.0 8.0 0.00 0.00 0.00 48 1019.2
20260504010043 74 106 4.0 8.0 0.00 0.00 0.00 48 1016.2
20260504004551 75 174 3.0 9.0 0.00 0.00 0.00 47 1019.2
20260504004541 75 174 3.0 10.0 0.00 0.00 0.00 47 1016.1
20260504003049 75 140 5.0 10.0 0.00 0.00 0.00 47 1019.3
20260504003039 75 144 5.0 12.0 0.00 0.00 0.00 46 1016.2
20260504001551 76 148 4.0 9.0 0.00 0.00 0.00 48 1019.2
20260504001547 76 163 4.0 9.0 0.00 0.00 0.00 47 1016.3
20260504000046 76 132 4.0 11.0 0.00 0.00 0.00 47 1019.4
20260504000041 76 126 3.0 14.0 0.00 0.00 0.00 48 1016.3
20260503234546 76 183 5.0 11.0 0.00 0.00 0.00 47 1019.5
20260503234543 76 167 4.0 11.0 0.00 0.00 0.00 46 1016.5
20260503233050 76 142 7.0 14.0 0.00 0.00 0.00 45 1016.7
20260503233045 76 146 7.0 14.0 0.00 0.00 0.00 46 1019.7
20260503231543 77 148 7.0 12.0 0.00 0.00 0.00 45 1019.8
20260503230044 77 102 7.0 13.0 0.00 0.00 0.00 44 1017.0
20260503224542 77 142 4.0 13.0 0.00 0.00 0.00 42 1016.9
20260503223044 78 178 7.0 15.0 0.00 0.00 0.00 43 1017.0
20260503223041 78 178 7.0 15.0 0.00 0.00 0.00 43 1019.9
20260503221558 77 124 4.0 14.0 0.00 0.00 0.00 42 1017.3
20260503221536 77 165 6.0 14.0 0.00 0.00 0.00 42 1020.3
20260503220050 78 126 5.0 16.0 0.00 0.00 0.00 41 1017.5
20260503220035 78 126 6.0 15.0 0.00 0.00 0.00 42 1020.6
20260503214545 78 173 5.0 14.0 0.00 0.00 0.00 44 1017.8
20260503214539 78 173 4.0 14.0 0.00 0.00 0.00 45 1020.8
20260503213047 79 190 5.0 19.0 0.00 0.00 0.00 41 1018.2
20260503213030 79 190 5.0 11.0 0.00 0.00 0.00 41 1021.2
20260503211544 79 163 6.0 13.0 0.00 0.00 0.00 42 1018.3
20260503211528 79 163 6.0 12.0 0.00 0.00 0.00 43 1021.5
20260503210042 78 236 2.0 10.0 0.00 0.00 0.00 45 1018.4
20260503210026 78 215 2.0 10.0 0.00 0.00 0.00 45 1021.7
20260503204549 78 185 3.0 12.0 0.00 0.00 0.00 41 1018.8
20260503204525 78 151 3.0 12.0 0.00 0.00 0.00 42 1022.0
20260503203047 78 142 5.0 12.0 0.00 0.00 0.00 44 1019.3
20260503203032 78 133 5.0 11.0 0.00 0.00 0.00 44 1022.5
20260503201549 78 149 5.0 14.0 0.00 0.00 0.00 45 1019.5
20260503201520 78 126 6.0 14.0 0.00 0.00 0.00 45 1022.7
20260503200046 78 131 5.0 12.0 0.00 0.00 0.00 46 1019.6
20260503200019 78 164 5.0 12.0 0.00 0.00 0.00 46 1022.9
20260503194546 78 173 4.0 11.0 0.00 0.00 0.00 48 1020.0
20260503194516 78 159 3.0 11.0 0.00 0.00 0.00 45 1023.2
20260503193047 78 175 3.0 14.0 0.00 0.00 0.00 46 1020.2
20260503193030 78 175 2.0 10.0 0.00 0.00 0.00 46 1023.5
20260503191607 77 139 5.0 13.0 0.00 0.00 0.00 45 1020.1
20260503191529 77 198 4.0 12.0 0.00 0.00 0.00 44 1023.4
20260503190042 77 196 5.0 12.0 0.00 0.00 0.00 46 1020.5
20260503190014 77 167 5.0 12.0 0.00 0.00 0.00 46 1023.7
20260503184544 76 88 5.0 10.0 0.00 0.00 0.00 49 1020.6
20260503184506 76 128 6.0 10.0 0.00 0.00 0.00 48 1023.9
20260503183042 76 128 4.0 15.0 0.00 0.00 0.00 51 1020.9
20260503183006 76 150 5.0 15.0 0.00 0.00 0.00 50 1024.2
20260503181550 76 119 5.0 12.0 0.00 0.00 0.00 49 1021.3
20260503181506 76 58 5.0 9.0 0.00 0.00 0.00 50 1024.6
20260503180049 76 279 2.0 10.0 0.00 0.00 0.00 49 1021.5
20260503180005 76 205 2.0 9.0 0.00 0.00 0.00 50 1024.8
20260503174548 76 170 3.0 9.0 0.00 0.00 0.00 49 1021.9
20260503174501 76 140 3.0 9.0 0.00 0.00 0.00 49 1025.2
20260503173105 75 180 8.0 14.0 0.00 0.00 0.00 52 1025.3
20260503173045 75 121 8.0 14.0 0.00 0.00 0.00 51 1022.1
20260503171559 75 132 6.0 11.0 0.00 0.00 0.00 51 1025.7
20260503171545 75 146 5.0 11.0 0.00 0.00 0.00 51 1022.4
20260503170117 75 126 4.0 10.0 0.00 0.00 0.00 53 1025.8
20260503170103 75 177 3.0 10.0 0.00 0.00 0.00 52 1022.6
20260503160105 73 181 3.0 9.0 0.00 0.00 0.00 56 1026.3
20260503081550 53 10 0.0 1.0 0.00 0.00 0.00 88 1024.3
20260503081543 53 0 0.0 1.0 0.00 0.00 0.00 87 1020.9
20260503071549 55 0 0.0 3.0 0.00 0.00 0.00 86 1021.4
20260503071539 55 10 0.0 2.0 0.00 0.00 0.00 86 1024.9
20260503054604 57 0 0.0 0.0 0.00 0.00 0.00 82 1021.6
20260503054543 57 33 0.0 0.0 0.00 0.00 0.00 83 1025.2
20260503053042 58 0 0.0 2.0 0.00 0.00 0.00 81 1021.6
20260503053031 58 33 0.0 0.0 0.00 0.00 0.00 81 1024.9
20260503051542 58 33 1.0 3.0 0.00 0.00 0.00 79 1021.6
20260503051525 58 33 1.0 3.0 0.00 0.00 0.00 80 1025.0
20260503050049 58 86 1.0 2.0 0.00 0.00 0.00 79 1021.4
20260503050022 58 86 1.0 2.0 0.00 0.00 0.00 80 1024.8
20260503044548 59 87 0.0 2.0 0.00 0.00 0.00 77 1021.5
20260503044527 59 87 1.0 2.0 0.00 0.00 0.00 78 1024.9
20260503043053 59 88 1.0 2.0 0.00 0.00 0.00 76 1021.3
20260503043021 59 88 1.0 2.0 0.00 0.00 0.00 76 1024.7
20260503041550 60 0 0.0 0.0 0.00 0.00 0.00 74 1021.6
20260503041521 60 88 0.0 0.0 0.00 0.00 0.00 74 1025.0
20260503040046 60 0 0.0 2.0 0.00 0.00 0.00 71 1021.5
20260503040019 60 88 0.0 2.0 0.00 0.00 0.00 72 1024.8
20260503034547 60 88 2.0 3.0 0.00 0.00 0.00 71 1021.2
20260503034519 60 88 2.0 3.0 0.00 0.00 0.00 71 1024.6
20260503033046 61 88 1.0 2.0 0.00 0.00 0.00 68 1021.1
20260503033018 61 88 1.0 2.0 0.00 0.00 0.00 69 1024.5